• In Czech Republic
  • List of Countries
  • For 7 days
  • Water Temperature
  • Satellite Maps
  • Weather Map
  • Weather Widgets
  • user-avatar
    Login

    Hourly Weather Canillo

    Today, 23 September, Sunday

    Time Temperature Precipitation Wind Pressure Humidity
    00:00 +12°C° 0 mm 2 mps 625 mmHg 80%
    01:00 +12°C° 0 mm 2 mps 625 mmHg 78%
    02:00 +12°C° 0 mm 2 mps 625 mmHg 76%
    03:00 +12°C° 0 mm 2 mps 625 mmHg 74%
    04:00 +10°C° 0 mm 2 mps 625 mmHg 71%
    05:00 +11°C° 0 mm 1 mps 625 mmHg 68%
    06:00 +11°C° 0 mm 1 mps 624 mmHg 66%
    07:00 +14°C° 0 mm 1 mps 626 mmHg 58%
    08:00 +18°C° 0 mm 1 mps 627 mmHg 51%
    09:00 +20°C° 0 mm 1 mps 628 mmHg 44%
    10:00 +22°C° 0 mm 1 mps 628 mmHg 42%
    11:00 +23°C° 0 mm 1 mps 628 mmHg 40%
    12:00 +24°C° 0 mm 1 mps 629 mmHg 39%
    13:00 +23°C° 0 mm 2 mps 628 mmHg 40%
    14:00 +23°C° 0 mm 2 mps 628 mmHg 41%
    15:00 +23°C° 0 mm 2 mps 627 mmHg 43%
    16:00 +20°C° 0 mm 2 mps 627 mmHg 50%
    17:00 +18°C° 0 mm 2 mps 626 mmHg 57%
    18:00 +16°C° 0 mm 2 mps 625 mmHg 65%
    19:00 +15°C° 0 mm 2 mps 625 mmHg 69%
    20:00 +14°C° 0 mm 2 mps 625 mmHg 73%
    21:00 +13°C° 0 mm 2 mps 625 mmHg 77%
    22:00 +12°C° 0 mm 2 mps 625 mmHg 77%
    23:00 +12°C° 0 mm 2 mps 625 mmHg 78%

    Tomorrow, 24 September, Monday

    Time Temperature Precipitation Wind Pressure Humidity
    00:00 +10°C° 0 mm 2 mps 624 mmHg 78%
    01:00 +10°C° 0 mm 2 mps 624 mmHg 76%
    02:00 +10°C° 0 mm 2 mps 624 mmHg 74%
    03:00 +10°C° 0 mm 2 mps 624 mmHg 71%
    04:00 +10°C° 0 mm 2 mps 624 mmHg 75%
    05:00 +10°C° 0 mm 2 mps 624 mmHg 78%
    06:00 +10°C° 0 mm 2 mps 624 mmHg 82%
    07:00 +12°C° 0 mm 2 mps 625 mmHg 78%
    08:00 +13°C° 0 mm 2 mps 626 mmHg 74%
    09:00 +15°C° 0 mm 2 mps 626 mmHg 70%
    10:00 +15°C° 0 mm 2 mps 627 mmHg 67%
    11:00 +16°C° 0 mm 3 mps 627 mmHg 64%
    12:00 +16°C° 0 mm 3 mps 627 mmHg 61%
    13:00 +16°C° 0 mm 3 mps 627 mmHg 60%
    14:00 +16°C° 0 mm 3 mps 626 mmHg 58%
    15:00 +16°C° 0 mm 3 mps 626 mmHg 57%
    16:00 +13°C° 0.1 mm 3 mps 625 mmHg 63%
    17:00 +11°C° 0.1 mm 3 mps 625 mmHg 69%
    18:00 +9°C° 0.1 mm 3 mps 624 mmHg 75%
    19:00 +9°C° 0.1 mm 2 mps 624 mmHg 74%
    20:00 +8°C° 0.1 mm 2 mps 624 mmHg 74%
    21:00 +7°C° 0.1 mm 2 mps 625 mmHg 74%
    22:00 +7°C° 0 mm 2 mps 624 mmHg 72%
    23:00 +7°C° 0 mm 2 mps 624 mmHg 70%

    Day after tomorrow, 25 September, Tuesday

    Time Temperature Precipitation Wind Pressure Humidity
    00:00 +7°C° 0 mm 2 mps 624 mmHg 68%
    01:00 +8°C° 0 mm 1 mps 624 mmHg 71%
    02:00 +8°C° 0 mm 1 mps 624 mmHg 73%
    03:00 +8°C° 0 mm 1 mps 624 mmHg 75%
    04:00 +8°C° 0 mm 1 mps 624 mmHg 78%
    05:00 +7°C° 0 mm 1 mps 624 mmHg 81%
    06:00 +6°C° 0 mm 0 mps 624 mmHg 83%
    07:00 +9°C° 0 mm 1 mps 625 mmHg 77%
    08:00 +11°C° 0 mm 1 mps 626 mmHg 72%
    09:00 +12°C° 0 mm 2 mps 627 mmHg 66%
    10:00 +13°C° 0 mm 2 mps 627 mmHg 62%
    11:00 +14°C° 0 mm 2 mps 628 mmHg 59%
    12:00 +15°C° 0 mm 2 mps 628 mmHg 55%
    13:00 +15°C° 0 mm 2 mps 628 mmHg 56%
    14:00 +15°C° 0 mm 2 mps 627 mmHg 57%
    15:00 +15°C° 0 mm 2 mps 627 mmHg 58%
    16:00 +13°C° 0 mm 2 mps 627 mmHg 64%
    17:00 +12°C° 0 mm 2 mps 626 mmHg 69%
    18:00 +10°C° 0 mm 2 mps 626 mmHg 75%
    19:00 +10°C° 0 mm 1 mps 626 mmHg 79%
    20:00 +9°C° 0 mm 1 mps 626 mmHg 82%
    21:00 +8°C° 0 mm 1 mps 626 mmHg 86%
    22:00 +8°C° 0 mm 1 mps 626 mmHg 86%
    23:00 +8°C° 0 mm 1 mps 626 mmHg 86%

    26 September, Wednesday

    Time Temperature Precipitation Wind Pressure Humidity
    00:00 +8°C° 0 mm 1 mps 626 mmHg 86%
    01:00 +7°C° 0 mm 1 mps 625 mmHg 86%
    02:00 +7°C° 0 mm 1 mps 625 mmHg 85%
    03:00 +7°C° 0 mm 1 mps 625 mmHg 85%
    04:00 +7°C° 0 mm 1 mps 625 mmHg 84%
    05:00 +7°C° 0 mm 1 mps 625 mmHg 84%
    06:00 +7°C° 0 mm 1 mps 625 mmHg 83%
    07:00 +8°C° 0 mm 2 mps 626 mmHg 74%
    08:00 +12°C° 0 mm 2 mps 628 mmHg 65%
    09:00 +13°C° 0 mm 3 mps 629 mmHg 56%
    10:00 +14°C° 0 mm 3 mps 629 mmHg 51%
    11:00 +16°C° 0 mm 3 mps 630 mmHg 47%
    12:00 +18°C° 0 mm 3 mps 630 mmHg 42%
    13:00 +18°C° 0 mm 3 mps 630 mmHg 43%
    14:00 +17°C° 0 mm 3 mps 629 mmHg 44%
    15:00 +17°C° 0 mm 3 mps 629 mmHg 46%
    16:00 +14°C° 0 mm 3 mps 628 mmHg 55%
    17:00 +13°C° 0 mm 2 mps 628 mmHg 64%
    18:00 +10°C° 0 mm 2 mps 627 mmHg 73%
    19:00 +9°C° 0 mm 2 mps 627 mmHg 76%
    20:00 +9°C° 0 mm 1 mps 627 mmHg 79%
    21:00 +9°C° 0 mm 1 mps 627 mmHg 81%
    22:00 +9°C° 0 mm 1 mps 627 mmHg 81%
    23:00 +8°C° 0 mm 1 mps 626 mmHg 80%

    27 September, Thursday

    Time Temperature Precipitation Wind Pressure Humidity
    00:00 +8°C° 0 mm 1 mps 626 mmHg 80%
    01:00 +8°C° 0 mm 1 mps 626 mmHg 78%
    02:00 +8°C° 0 mm 1 mps 626 mmHg 75%
    03:00 +8°C° 0 mm 1 mps 626 mmHg 73%
    04:00 +8°C° 0 mm 1 mps 626 mmHg 71%
    05:00 +8°C° 0 mm 1 mps 626 mmHg 70%
    06:00 +8°C° 0 mm 1 mps 626 mmHg 68%
    07:00 +11°C° 0 mm 1 mps 627 mmHg 62%
    08:00 +13°C° 0 mm 2 mps 628 mmHg 57%
    09:00 +16°C° 0 mm 2 mps 629 mmHg 51%
    10:00 +17°C° 0 mm 2 mps 629 mmHg 49%
    11:00 +18°C° 0 mm 2 mps 630 mmHg 47%
    12:00 +19°C° 0 mm 2 mps 630 mmHg 44%
    13:00 +19°C° 0 mm 2 mps 629 mmHg 46%
    14:00 +19°C° 0 mm 2 mps 629 mmHg 47%
    15:00 +19°C° 0 mm 2 mps 629 mmHg 48%
    16:00 +17°C° 0 mm 2 mps 628 mmHg 57%
    17:00 +15°C° 0 mm 2 mps 627 mmHg 67%
    18:00 +13°C° 0 mm 1 mps 626 mmHg 76%
    19:00 +12°C° 0 mm 1 mps 626 mmHg 79%
    20:00 +11°C° 0 mm 1 mps 626 mmHg 81%
    21:00 +10°C° 0 mm 1 mps 625 mmHg 84%
    22:00 +10°C° 0 mm 1 mps 625 mmHg 84%
    23:00 +10°C° 0 mm 1 mps 625 mmHg 83%

    28 September, Friday

    Time Temperature Precipitation Wind Pressure Humidity
    00:00 +10°C° 0 mm 1 mps 624 mmHg 83%
    01:00 +10°C° 0 mm 1 mps 624 mmHg 82%
    02:00 +10°C° 0 mm 1 mps 624 mmHg 82%
    03:00 +10°C° 0 mm 1 mps 624 mmHg 81%
    04:00 +9°C° 0 mm 1 mps 623 mmHg 81%
    05:00 +9°C° 0 mm 1 mps 623 mmHg 81%
    06:00 +9°C° 0 mm 1 mps 623 mmHg 80%
    07:00 +12°C° 0 mm 1 mps 624 mmHg 71%
    08:00 +15°C° 0 mm 1 mps 625 mmHg 63%
    09:00 +18°C° 0 mm 1 mps 626 mmHg 54%
    10:00 +19°C° 0 mm 1 mps 627 mmHg 50%
    11:00 +20°C° 0 mm 1 mps 627 mmHg 46%
    12:00 +20°C° 0 mm 2 mps 627 mmHg 42%
    13:00 +21°C° 0 mm 1 mps 626 mmHg 45%
    14:00 +20°C° 0 mm 1 mps 625 mmHg 47%
    15:00 +20°C° 0 mm 1 mps 625 mmHg 49%
    16:00 +18°C° 0 mm 1 mps 624 mmHg 57%
    17:00 +15°C° 0 mm 1 mps 623 mmHg 64%
    18:00 +13°C° 0 mm 0 mps 623 mmHg 71%
    19:00 +12°C° 0 mm 0 mps 622 mmHg 74%
    20:00 +11°C° 0 mm 0 mps 622 mmHg 77%
    21:00 +11°C° 0 mm 1 mps 622 mmHg 81%
    22:00 +11°C° 0 mm 1 mps 622 mmHg 81%
    23:00 +11°C° 0 mm 1 mps 621 mmHg 81%
    Show more